Temperature
12 12 12 12 12 11 11 11 11 11 10 10 10 10 10 10 10 9 9 9 9 9 9 8 8 8 8 9 9 9 9 9 8 8 8 8 8 8 8 7 7 7 7
12 12 12 12 11 11 11 11 10 10 10 10 10 10 10 10 9 9 9 9 9 9 9 9 8 8 8 8 9 9 9 8 8 8 8 8 8 8 8 7 7 7 7
12 12 12 12 11 11 10 10 10 10 10 10 10 10 9 9 9 9 9 9 9 9 9 9 8 8 8 8 8 9 9 8 8 8 8 8 8 8 7 7 7 7 6
12 12 12 11 11 11 10 10 10 10 10 10 9 9 9 9 9 9 9 9 9 9 9 9 9 9 8 8 8 8 8 8 8 8 8 8 8 7 7 7 7 6 6
12 12 11 11 11 11 10 10 10 10 10 10 9 9 9 9 9 9 9 9 9 9 9 9 9 9 9 8 8 8 8 8 8 8 8 8 7 7 7 7 6 6 6
12 11 11 11 11 10 10 10 10 10 9 9 9 9 9 9 9 9 9 9 9 9 9 9 9 9 9 9 8 8 8 8 8 8 8 8 7 7 7 6 6 6 6
12 11 11 11 11 11 10 10 10 9 9 9 9 9 9 9 9 9 9 9 9 9 9 9 9 9 9 9 8 8 8 8 8 8 7 7 7 7 6 6 6 6 5
12 12 11 11 11 10 10 10 10 10 9 9 9 8 9 9 9 9 9 9 9 9 9 9 9 9 9 9 8 8 8 8 8 8 7 7 7 6 6 6 5 5 5
12 12 11 11 11 11 10 10 10 10 10 9 9 9 9 9 9 10 10 10 9 9 9 9 9 9 9 9 8 8 8 8 8 8 7 7 7 6 6 5 5 5 4
12 12 11 11 11 11 11 10 10 10 10 9 9 9 9 9 9 9 10 10 10 10 9 9 9 9 9 9 8 8 8 8 8 8 7 7 7 6 6 5 5 4 4
12 12 12 11 11 11 11 10 10 10 10 10 9 9 9 9 9 9 9 10 10 10 9 9 9 9 9 9 8 8 8 8 8 7 7 7 6 6 5 5 4 4 4
12 12 12 11 11 11 11 11 10 10 10 10 9 9 9 9 9 9 9 9 9 9 9 9 9 9 9 9 8 8 8 8 7 7 7 6 6 6 5 5 4 4 3
13 13 12 12 12 11 11 11 10 10 10 10 10 9 9 9 9 9 9 9 9 9 9 9 9 9 9 8 8 8 8 7 7 7 6 6 6 5 5 4 4 4 3
14 14 13 13 12 12 11 11 10 10 10 10 10 9 9 9 9 9 8 8 8 8 8 9 9 9 8 8 8 8 7 7 7 6 6 6 5 5 4 4 4 3 3
14 14 13 13 12 12 11 11 11 10 10 10 10 9 9 9 9 9 8 8 8 7 8 8 8 8 8 8 8 7 7 7 6 6 6 5 5 4 4 4 3 3 2
14 14 13 13 12 12 11 11 11 11 10 10 10 10 9 9 9 9 8 8 8 8 7 8 8 8 8 7 7 7 7 7 6 6 6 5 5 4 4 3 3 2 2
14 14 13 13 13 12 12 11 11 11 10 10 10 10 10 9 9 9 9 8 8 8 7 8 8 8 7 7 7 7 6 6 6 6 5 5 4 4 3 3 2 2 1
13 13 13 13 13 12 12 12 11 11 11 10 10 10 10 9 9 9 8 8 8 8 8 8 8 7 7 7 7 6 6 6 5 5 5 4 4 3 3 2 2 1 1
13 13 13 13 12 12 12 12 11 11 11 11 10 10 9 9 9 9 8 8 8 8 8 7 7 7 7 7 6 6 6 5 5 5 4 4 3 3 2 2 1 1 0
13 13 13 13 12 12 12 12 11 11 11 10 10 10 9 9 9 9 8 8 8 8 7 7 7 7 7 6 6 6 6 5 5 4 4 3 3 2 2 1 1 0 -1
13 13 12 12 12 12 12 12 11 11 11 10 10 10 10 9 9 9 8 8 8 8 7 7 7 7 6 6 6 5 5 5 5 4 3 3 2 2 1 1 0 -0 -1
12 12 12 12 12 12 12 11 11 11 10 10 10 10 10 9 9 8 8 8 8 7 7 7 7 6 6 6 5 5 4 4 4 3 3 3 2 2 1 0 -0 -1 -2
12 12 12 12 12 12 11 11 11 11 10 10 10 10 9 9 9 9 8 8 8 7 7 7 6 6 6 5 5 4 4 3 3 2 2 2 2 1 1 -0 -1 -1 -2
11 11 11 11 11 11 11 11 11 10 10 10 10 10 9 9 9 8 8 8 7 7 7 6 6 6 5 4 4 3 3 3 2 2 1 1 1 1 0 -0 -1 -2 -3
11 11 11 11 11 11 11 11 10 10 10 10 10 9 9 9 8 8 8 7 7 7 6 6 5 5 4 4 3 3 3 2 2 1 1 -0 -0 -0 -0 -1 -2 -2 -3
11 11 10 11 11 11 11 11 10 10 9 9 9 9 9 8 8 8 7 7 7 6 6 6 5 4 4 3 3 2 2 1 1 0 -0 -1 -1 -2 -2 -1 -2 -3 -3
Wind_Speed
8 8 8 9 10 11 10 8 8 7 7 7 7 7 6 5 5 4 3 4 4 3 3 4 4 4 4 5 5 5 5 5 6 7 7 8 8 9 9 10 11 11 12
11 9 8 8 8 10 10 8 7 6 5 5 4 5 5 5 4 3 2 3 3 2 2 2 2 3 3 3 3 3 3 4 5 5 6 7 7 8 9 10 10 11 12
14 11 8 7 8 11 11 8 7 6 4 4 3 3 4 4 3 3 2 2 1 1 1 1 1 1 1 1 1 2 2 3 4 5 5 6 7 8 8 9 10 11 12
17 12 8 7 10 11 9 6 4 4 3 3 3 2 2 2 3 3 3 2 2 1 1 0 1 1 2 1 1 1 2 3 4 5 5 6 7 8 9 10 10 11 12
18 13 9 9 12 9 6 5 3 4 4 3 3 2 1 1 2 3 3 4 3 3 3 2 1 2 3 3 3 3 3 4 5 6 6 7 8 9 9 10 11 12 13
18 14 10 10 11 7 5 5 5 3 3 4 3 2 1 1 2 2 3 4 4 5 4 4 3 3 3 4 5 5 5 6 6 6 7 8 9 9 10 11 12 12 13
18 14 9 9 9 8 8 8 5 5 3 3 3 2 2 2 2 3 3 3 4 6 6 6 6 5 5 5 6 6 7 8 8 8 9 9 10 10 11 11 12 13 14
18 15 11 10 9 8 8 8 6 5 3 4 4 2 1 3 3 2 2 3 4 5 6 7 8 8 8 7 7 7 8 9 10 10 10 10 11 11 12 12 13 14 14
17 15 14 11 11 10 10 9 9 8 5 3 3 4 3 4 3 2 2 3 3 3 5 7 9 10 10 9 9 9 9 10 11 11 11 12 12 12 13 13 14 14 15
16 16 16 14 12 10 10 10 9 6 7 5 3 1 2 4 2 2 3 2 3 5 5 6 8 10 11 11 11 11 11 11 12 12 12 12 13 13 14 14 14 15 15
14 16 16 14 13 11 11 11 10 8 7 6 5 3 2 1 2 2 3 3 3 4 4 6 7 9 11 12 12 12 12 12 13 13 13 13 13 14 15 15 15 16 16
12 15 15 14 13 11 12 11 12 12 9 8 6 5 5 4 4 4 4 4 4 3 3 4 6 8 11 12 13 13 14 14 14 14 13 13 14 14 15 16 16 16 17
12 16 15 14 13 12 12 11 12 11 11 10 9 7 6 5 4 5 4 3 3 3 3 3 5 8 10 11 12 13 13 14 14 14 13 14 14 15 15 15 16 17 18
14 14 15 14 13 13 12 12 10 11 10 11 11 9 7 6 5 5 5 4 2 3 3 5 3 6 8 10 11 11 12 13 13 13 14 14 14 15 15 16 16 17 17
11 14 16 15 13 13 13 13 10 11 11 11 10 10 8 7 6 6 5 5 5 4 5 4 3 3 5 7 9 9 11 12 12 13 14 14 14 14 15 15 15 16 16
13 15 16 15 14 14 14 13 11 11 12 11 9 10 10 7 6 6 6 6 6 6 5 4 4 3 2 4 6 8 10 11 12 13 13 13 13 13 13 14 14 15 15
14 16 16 16 15 15 14 14 13 12 13 12 10 11 12 9 8 7 6 6 6 6 7 5 3 2 2 3 3 5 8 8 9 11 12 12 12 12 12 13 13 14 15
14 14 15 15 15 15 15 15 15 14 14 14 13 12 12 9 10 8 7 8 7 7 7 7 4 3 4 3 2 3 4 6 8 9 10 11 11 11 12 12 12 13 14
14 14 15 16 16 15 15 15 14 14 14 14 13 13 12 12 12 9 9 8 7 6 6 6 5 2 2 1 1 2 3 3 5 7 8 9 10 11 11 12 12 12 13
15 16 15 15 15 15 15 14 14 13 13 12 12 12 12 13 13 11 9 9 7 6 5 5 5 3 2 1 1 2 3 2 3 3 6 7 8 9 10 12 12 12 13
15 15 14 13 14 13 14 14 14 13 12 11 11 11 11 13 14 11 9 8 8 6 5 5 5 3 2 2 2 2 3 3 3 1 2 4 5 5 7 10 10 12 13
14 14 15 14 14 12 16 19 15 12 12 12 11 10 10 11 13 14 13 12 10 8 7 6 5 5 5 4 2 2 1 1 3 1 1 4 2 3 4 7 10 12 13
13 14 14 14 14 14 17 19 19 13 11 11 11 10 8 8 11 9 9 9 8 8 9 7 6 6 4 4 3 2 2 2 3 2 1 3 2 3 4 8 10 10 12
12 13 13 14 12 13 17 18 18 13 10 10 10 10 10 9 9 10 7 6 5 4 6 5 5 4 4 3 3 3 2 1 1 1 1 2 3 3 5 7 8 9 12
11 11 12 13 13 12 17 18 16 10 9 9 8 8 9 9 12 13 9 8 6 3 4 6 5 4 4 4 4 3 2 1 2 2 0 1 3 4 4 3 6 11 12
9 9 10 11 12 11 15 18 17 9 9 7 6 7 10 11 13 14 10 9 8 6 5 4 4 4 3 4 4 3 3 1 1 2 1 1 2 3 4 3 3 7 9
Wind_Direction
148 143 139 136 134 133 127 122 120 122 121 121 124 127 128 127 122 109 87 85 94 107 115 115 110 104 95 85 78 70 58 47 41 35 30 27 22 17 14 10 10 7 4
155 151 146 143 143 144 141 136 134 131 128 127 122 130 136 137 133 126 110 86 76 83 125 131 121 114 105 93 76 62 45 32 27 23 17 15 10 7 4 2 1 359 357
160 157 154 153 154 151 142 132 124 122 120 121 119 129 138 149 154 155 151 129 91 57 63 176 169 167 147 107 77 44 22 8 5 2 0 359 357 355 353 353 352 351 349
165 161 161 161 159 152 145 136 132 124 125 131 135 135 136 158 181 185 183 185 189 212 248 280 270 253 235 256 279 309 329 337 339 338 341 343 343 342 342 342 341 341 340
169 167 168 165 160 153 149 149 136 137 144 149 146 131 132 192 212 208 207 215 220 223 234 250 273 291 268 267 275 283 293 306 315 322 328 330 331 330 331 331 331 332 331
173 170 169 166 163 157 157 152 141 131 139 145 124 90 351 268 245 235 232 232 234 234 235 241 251 265 270 272 275 282 289 296 303 310 315 318 320 321 322 324 324 325 325
176 175 173 168 169 171 170 159 142 140 131 129 106 46 332 281 247 243 237 238 243 242 239 239 242 250 258 269 275 279 285 291 295 300 304 308 311 314 315 318 321 322 322
180 182 175 176 175 171 168 168 152 144 145 156 137 122 310 319 288 240 231 232 242 244 242 241 241 244 250 256 263 275 282 286 289 293 298 302 306 309 312 314 316 318 320
184 184 182 177 178 178 182 180 171 160 162 181 166 151 163 229 284 300 252 238 238 238 244 246 243 245 246 248 255 263 272 279 284 289 294 299 302 304 307 309 312 314 315
186 185 183 182 182 184 182 184 181 172 159 172 185 166 152 155 163 298 307 275 248 243 243 241 241 245 244 244 249 256 264 271 278 284 289 294 298 301 304 307 310 312 314
188 188 186 185 186 187 186 184 181 182 178 173 171 158 146 123 146 173 272 299 295 257 242 236 237 242 243 243 247 252 258 265 272 278 284 289 294 299 303 306 309 312 314
190 190 188 189 189 189 188 187 187 188 191 184 180 172 166 168 184 182 220 250 268 278 262 241 233 238 240 241 244 251 256 260 266 273 279 285 290 295 299 303 307 309 311
193 195 191 191 190 190 188 185 188 193 193 193 193 196 194 192 168 170 185 223 251 278 289 264 237 238 240 240 245 251 256 260 265 270 276 281 285 289 295 300 304 306 308
196 188 191 191 189 186 187 187 191 195 196 200 202 200 202 205 188 181 180 181 241 278 271 262 262 236 239 239 247 251 255 261 265 269 273 277 280 285 291 297 300 303 306
186 183 188 189 188 187 187 186 196 197 197 203 205 204 208 206 199 201 193 187 199 252 270 250 250 253 239 242 252 251 254 262 267 269 272 276 279 284 291 296 300 303 304
181 182 186 189 188 189 189 190 195 196 198 203 201 203 209 207 204 201 203 205 204 215 247 246 234 242 240 252 257 251 256 265 269 271 275 279 282 286 291 296 299 301 304
183 184 186 188 189 191 191 194 198 194 201 204 201 204 211 204 205 208 204 204 209 205 239 257 233 228 227 254 275 261 265 266 270 274 278 283 285 288 292 295 298 303 306
186 186 184 188 191 192 192 196 199 198 201 205 204 204 209 203 208 208 206 210 214 210 220 249 251 233 235 241 263 278 276 270 271 276 282 285 287 291 293 295 301 305 309
187 185 187 191 193 193 195 199 199 200 203 205 203 204 206 202 209 209 208 212 215 213 214 228 248 235 241 238 275 281 282 277 281 280 289 288 289 294 297 300 304 308 310
189 188 191 194 194 193 196 197 196 199 202 203 202 203 204 204 208 207 208 211 208 205 206 219 240 243 244 235 228 267 288 279 286 286 293 292 294 297 303 308 308 309 312
192 189 190 193 193 193 196 194 196 197 197 199 201 203 204 203 204 203 203 204 199 204 203 212 230 232 238 238 246 235 264 296 287 280 307 299 296 295 304 309 309 309 315
190 188 191 192 193 199 194 189 190 194 195 197 199 199 199 199 203 203 200 196 191 196 203 206 218 224 234 230 225 220 246 303 295 315 312 294 289 288 296 302 309 315 319
187 190 192 192 196 199 190 187 187 190 193 197 196 192 192 195 195 197 198 195 193 193 192 195 206 219 221 215 198 214 222 232 256 298 327 284 301 297 304 308 313 317 321
189 192 193 192 194 195 186 186 184 188 190 193 193 190 190 189 188 182 179 179 185 192 195 194 194 204 204 193 185 190 198 223 271 313 12 284 307 301 312 311 313 323 326
188 190 190 188 191 192 183 179 174 186 189 190 188 186 186 185 181 173 170 170 167 168 145 148 145 133 128 135 129 112 96 68 285 278 3 287 303 309 302 295 311 323 326
184 184 187 189 190 190 180 175 171 180 183 184 180 183 185 181 177 173 175 174 176 177 151 133 118 98 88 96 113 121 155 155 253 272 263 292 308 332 315 296 301 314 319
Height
1514 1517 1519 1522 1525 1527 1529 1532 1534 1536 1538 1540 1542 1543 1545 1546 1547 1548 1549 1550 1550 1551 1551 1551 1551 1551 1550 1550 1549 1549 1548 1547 1546 1545 1544 1543 1542 1541 1539 1538 1536 1534 1532
1512 1515 1518 1521 1524 1526 1529 1531 1534 1536 1538 1540 1541 1543 1545 1546 1547 1548 1549 1549 1550 1550 1551 1551 1551 1551 1550 1550 1549 1549 1548 1547 1546 1545 1544 1543 1542 1540 1538 1537 1535 1533 1531
1511 1514 1517 1519 1522 1525 1528 1530 1533 1535 1537 1539 1541 1543 1544 1545 1546 1547 1548 1549 1549 1549 1550 1550 1550 1550 1550 1549 1549 1548 1547 1547 1546 1545 1544 1542 1541 1539 1538 1536 1534 1532 1530
1509 1512 1515 1518 1521 1524 1527 1529 1532 1534 1537 1539 1540 1542 1543 1545 1546 1546 1547 1548 1548 1548 1549 1549 1549 1549 1549 1549 1548 1548 1547 1546 1545 1544 1543 1541 1540 1538 1536 1534 1532 1530 1528
1506 1509 1513 1516 1519 1522 1525 1528 1530 1533 1535 1538 1540 1541 1542 1543 1544 1545 1546 1546 1547 1547 1547 1548 1548 1548 1548 1548 1547 1547 1546 1545 1544 1543 1541 1540 1538 1536 1535 1533 1530 1528 1526
1503 1507 1511 1514 1517 1520 1523 1526 1529 1532 1534 1537 1538 1540 1541 1542 1542 1543 1544 1544 1545 1545 1546 1546 1546 1546 1546 1546 1545 1545 1544 1543 1542 1541 1539 1538 1536 1534 1532 1530 1528 1526 1523
1500 1504 1507 1511 1514 1517 1521 1524 1527 1529 1532 1535 1537 1538 1539 1540 1540 1541 1541 1542 1543 1543 1544 1544 1544 1544 1544 1544 1543 1543 1542 1541 1540 1539 1537 1536 1534 1532 1530 1527 1525 1523 1520
1496 1500 1504 1507 1511 1514 1518 1521 1524 1527 1529 1532 1534 1536 1537 1538 1537 1538 1539 1539 1540 1541 1541 1542 1542 1542 1542 1541 1541 1540 1539 1538 1537 1536 1534 1533 1531 1529 1527 1524 1522 1519 1517
1492 1496 1500 1504 1508 1511 1514 1518 1521 1524 1526 1529 1532 1534 1535 1535 1535 1536 1536 1537 1538 1538 1539 1539 1539 1539 1539 1538 1538 1537 1536 1535 1534 1533 1531 1529 1528 1525 1523 1521 1518 1516 1513
1487 1492 1496 1500 1504 1507 1511 1514 1518 1521 1524 1526 1529 1531 1533 1533 1534 1534 1535 1535 1535 1536 1536 1536 1536 1536 1535 1535 1534 1534 1533 1532 1530 1529 1527 1526 1524 1522 1519 1517 1515 1512 1509
1482 1487 1491 1496 1499 1503 1507 1511 1514 1517 1520 1522 1525 1527 1529 1530 1532 1533 1532 1533 1533 1533 1533 1533 1532 1532 1532 1531 1531 1530 1529 1528 1526 1525 1523 1521 1519 1517 1515 1513 1510 1507 1504
1476 1481 1486 1490 1494 1498 1502 1506 1510 1513 1516 1519 1521 1523 1525 1527 1528 1530 1530 1530 1530 1530 1530 1529 1529 1528 1528 1527 1527 1526 1525 1524 1522 1521 1519 1517 1515 1513 1510 1508 1505 1502 1499
1469 1474 1479 1484 1488 1493 1497 1502 1505 1508 1511 1514 1517 1519 1521 1523 1525 1527 1527 1527 1527 1526 1526 1525 1525 1525 1524 1523 1523 1522 1521 1519 1518 1516 1514 1512 1510 1508 1505 1502 1499 1496 1493
1463 1469 1474 1479 1483 1488 1492 1496 1500 1503 1507 1509 1512 1515 1517 1519 1521 1522 1524 1524 1523 1522 1521 1521 1521 1521 1520 1519 1518 1517 1516 1515 1513 1511 1509 1507 1505 1502 1499 1497 1494 1491 1488
1458 1464 1469 1474 1478 1483 1487 1491 1494 1498 1501 1504 1507 1510 1512 1514 1516 1518 1519 1520 1521 1518 1516 1516 1517 1516 1516 1515 1514 1513 1511 1510 1508 1506 1504 1502 1499 1496 1494 1491 1488 1485 1482
1452 1458 1463 1468 1472 1477 1481 1485 1488 1492 1496 1498 1501 1504 1506 1509 1511 1512 1514 1515 1515 1515 1513 1512 1512 1512 1512 1511 1510 1508 1507 1505 1503 1501 1499 1496 1494 1491 1488 1485 1482 1479 1476
1446 1451 1456 1461 1466 1470 1475 1479 1482 1486 1489 1492 1495 1498 1500 1503 1505 1507 1508 1509 1509 1510 1508 1507 1508 1508 1507 1506 1505 1503 1502 1500 1498 1496 1493 1491 1488 1485 1483 1480 1477 1474 1470
1440 1445 1450 1455 1460 1464 1468 1472 1476 1479 1483 1485 1488 1491 1494 1497 1499 1500 1502 1502 1503 1504 1504 1502 1502 1502 1502 1501 1499 1498 1497 1495 1493 1491 1488 1486 1483 1480 1477 1474 1471 1468 1465
1434 1439 1444 1448 1453 1457 1462 1465 1469 1473 1476 1479 1482 1485 1487 1490 1492 1494 1495 1496 1497 1498 1498 1497 1497 1497 1496 1495 1494 1493 1491 1490 1487 1485 1483 1480 1478 1475 1472 1469 1466 1462 1459
1427 1432 1437 1442 1447 1451 1455 1459 1463 1467 1470 1473 1476 1479 1481 1484 1486 1488 1489 1490 1492 1492 1492 1492 1491 1491 1491 1490 1488 1487 1486 1484 1482 1480 1478 1475 1473 1470 1467 1463 1460 1457 1453
1421 1426 1431 1436 1440 1445 1449 1453 1457 1460 1464 1467 1470 1472 1475 1478 1480 1482 1484 1485 1486 1486 1487 1486 1486 1486 1485 1484 1484 1482 1480 1479 1477 1475 1473 1471 1468 1465 1462 1458 1455 1451 1448
1415 1420 1425 1429 1434 1438 1442 1447 1451 1455 1458 1461 1464 1467 1470 1472 1474 1476 1478 1479 1481 1481 1481 1481 1481 1480 1480 1480 1479 1478 1476 1473 1471 1470 1467 1465 1463 1460 1456 1453 1450 1446 1443
1408 1414 1419 1423 1428 1432 1437 1441 1445 1449 1452 1456 1459 1461 1464 1467 1469 1471 1473 1474 1475 1476 1477 1477 1476 1476 1476 1475 1475 1473 1471 1469 1467 1465 1462 1459 1458 1455 1452 1448 1445 1441 1438
1403 1408 1413 1418 1422 1427 1432 1436 1440 1444 1447 1450 1454 1456 1459 1461 1463 1466 1467 1469 1470 1470 1471 1471 1472 1472 1472 1471 1470 1469 1467 1465 1464 1461 1458 1455 1452 1450 1447 1444 1441 1437 1434
1397 1402 1407 1412 1417 1421 1426 1430 1435 1438 1442 1445 1449 1451 1454 1456 1459 1461 1463 1464 1465 1465 1467 1467 1467 1467 1467 1467 1466 1465 1463 1461 1458 1457 1454 1451 1447 1444 1441 1439 1437 1434 1430
1391 1397 1402 1407 1412 1416 1421 1425 1429 1433 1436 1440 1443 1446 1449 1451 1454 1456 1458 1459 1460 1461 1462 1463 1463 1463 1463 1463 1462 1461 1459 1457 1454 1453 1450 1448 1444 1441 1437 1434 1433 1430 1426